Location: Argonnex
(45.9500°N, 6.1333°E)
Time: 05:31:54
(UTC+00:00)

Cosmos 2266 Rocket - Pass Details

Date: 05 August 2024
Orbit: 933 x 1008 km, 82.9° (Epoch: 08 September)

Event Time Altitude Azimuth Distance (km) Brightness Sun altitude
Rises 01:25:09 0° 355° (N) 3,606 7.9 -22.9°
Reaches altitude 10° 01:27:43 10° 360° (N) 2,655 7.1 -22.7°
Maximum altitude 01:33:38 54° 77° (ENE) 1,127 4.5 -22.3°
Enters shadow 01:38:09 17° 150° (SSE) 2,162 5.5 -21.9°
